Roda de Ter - l'Esquerda





Hora UTC 16:30
Temperatura 24.4 ºC
Humedad 52.0 %
Presión 1024.3 hPa
Pluja 0.0 mm
Velocidad viento 3.2 km/h
Dirección viento ENE

Datos diarios 2020-05-25



Hora UTC (invierno +1h; verano +2h)
Temperatura (ºC) Humedad (%) Presión (hPa) Velocidad viento (km/h) Precipitación (mm)
Hora UTC Aire Humedad Presión Vel. Dir. Vel. Max Dir. Intent. máx 5 min.
00:05 17.3 82.0 1026.7 0.0 SSE 0.0 0.0
00:10 17.3 83.0 1026.6 0.0 SSE 1.6 0.0
00:15 17.3 83.0 1026.4 0.0 SSE 0.0 0.0
00:20 17.3 82.0 1026.3 0.0 SSE 1.6 0.0
00:25 17.3 82.0 1026.4 0.0 SSE 1.6 0.0
00:30 17.3 82.0 1026.3 0.0 SSE 0.0 0.0
00:30 17.3 82.0 1026.3 0.0 SSE 0.0 0.0
00:40 17.3 83.0 1026.4 0.0 SSE 1.6 0.0
00:45 17.2 84.0 1026.3 0.0 SSE 1.6 0.0
00:50 17.2 83.0 1026.4 1.6 SSE 1.6 0.0
00:55 17.2 83.0 1026.2 0.0 SSE 1.6 0.0
01:00 17.1 84.0 1026.2 0.0 SSE 1.6 0.0
01:05 17.1 84.0 1026.1 0.0 SSE 3.2 0.0
01:10 17.1 85.0 1026.1 1.6 SSE 4.8 0.0
01:15 17.1 84.0 1026.1 0.0 SSE 3.2 0.0
01:20 17.1 84.0 1026.0 0.0 SSE 3.2 0.0
01:25 17.1 84.0 1026.1 0.0 SSE 1.6 0.0
01:30 17.2 84.0 1026.0 1.6 SSE 1.6 0.0
01:30 17.2 84.0 1026.0 0.0 SSE 1.6 0.0
01:40 17.2 85.0 1025.9 0.0 SSE 1.6 0.0
01:45 17.2 85.0 1025.8 0.0 SSE 1.6 0.0
01:50 17.1 85.0 1025.8 1.6 SSE 1.6 0.0
01:55 17.1 85.0 1025.7 1.6 SSE 3.2 0.0
02:00 17.0 85.0 1025.7 0.0 SSE 3.2 0.0
02:05 16.9 84.0 1025.7 1.6 SSE 3.2 0.0
02:10 16.9 83.0 1025.6 0.0 SSE 3.2 0.0
02:10 16.9 83.0 1025.5 1.6 SSE 3.2 0.0
02:20 16.9 83.0 1025.6 0.0 SSE 3.2 0.0
02:25 16.9 83.0 1025.5 1.6 SSE 1.6 0.0
02:30 16.9 84.0 1025.5 0.0 SSE 1.6 0.0
02:30 16.9 85.0 1025.5 1.6 SSE 1.6 0.0
02:40 16.9 84.0 1025.5 0.0 SSE 3.2 0.0
02:45 16.9 83.0 1025.5 0.0 SSE 1.6 0.0
02:50 16.9 83.0 1025.5 0.0 SSE 1.6 0.0
02:55 16.9 84.0 1025.4 0.0 SSE 1.6 0.0
03:00 16.9 83.0 1025.5 4.8 SSE 4.8 0.0
03:05 16.9 83.0 1025.5 0.0 SSE 3.2 0.0
03:10 16.9 83.0 1025.5 0.0 SSE 3.2 0.0
03:15 17.0 83.0 1025.5 1.6 SSE 3.2 0.0
03:20 17.0 83.0 1025.4 4.8 SSE 4.8 0.0
03:25 17.1 83.0 1025.5 1.6 SSE 3.2 0.0
03:30 17.1 83.0 1025.4 0.0 SSE 3.2 0.0
03:30 17.1 83.0 1025.4 0.0 SSE 3.2 0.0
03:40 16.9 83.0 1025.4 0.0 SSE 1.6 0.0
03:45 17.0 84.0 1025.4 0.0 SSE 1.6 0.0
03:50 16.9 83.0 1025.3 0.0 SSE 1.6 0.0
03:55 17.0 82.0 1025.3 1.6 SSE 4.8 0.0
04:00 17.0 82.0 1025.4 1.6 SSE 3.2 0.0
04:05 17.0 82.0 1025.4 0.0 SSE 3.2 0.0
04:10 17.1 82.0 1025.4 1.6 SSE 3.2 0.0
04:15 17.0 83.0 1025.4 1.6 SSE 3.2 0.0
04:20 16.9 83.0 1025.4 1.6 SSE 1.6 0.0
04:25 16.9 84.0 1025.4 0.0 SSE 1.6 0.0
04:30 16.8 83.0 1025.5 0.0 SSE 1.6 0.0
04:30 16.9 84.0 1025.5 0.0 SSE 1.6 0.0
04:40 17.1 83.0 1025.6 0.0 SSE 0.0 0.0
04:45 17.1 84.0 1025.6 0.0 SSE 0.0 0.0
04:50 17.1 85.0 1025.7 0.0 SSE 1.6 0.0
04:55 17.1 85.0 1025.6 0.0 SSE 1.6 0.0
05:00 17.1 86.0 1025.8 0.0 SSE 0.0 0.0
05:05 17.1 85.0 1025.8 0.0 SSE 1.6 0.0
05:10 17.2 85.0 1025.8 0.0 SSE 1.6 0.0
05:15 17.2 85.0 1025.8 1.6 SSE 3.2 0.0
05:20 17.2 83.0 1025.8 1.6 SSE 3.2 0.0
05:25 17.2 83.0 1025.8 1.6 SSE 3.2 0.0
05:30 17.3 83.0 1025.9 0.0 SSE 3.2 0.0
05:30 17.4 83.0 1025.9 4.8 SSE 4.8 0.0
05:40 17.3 83.0 1026.0 1.6 SSE 4.8 0.0
05:45 17.3 83.0 1026.0 0.0 S 4.8 0.0
05:50 17.3 82.0 1026.0 1.6 SSW 4.8 0.0
05:55 17.4 81.0 1026.0 1.6 SSW 6.4 0.0
06:00 17.5 81.0 1026.0 4.8 SSW 6.4 0.0
06:05 17.7 80.0 1026.0 1.6 S 4.8 0.0
06:10 17.9 80.0 1026.1 3.2 S 4.8 0.0
06:15 18.1 81.0 1026.1 0.0 SSW 4.8 0.0
06:20 18.1 78.0 1026.2 1.6 SSW 3.2 0.0
06:25 18.2 78.0 1026.2 3.2 SSW 4.8 0.0
06:30 18.2 76.0 1026.2 1.6 S 8.0 0.0
06:30 18.2 76.0 1026.2 3.2 SSW 8.0 0.0
06:40 18.2 74.0 1026.2 4.8 SSW 6.4 0.0
06:45 18.2 75.0 1026.1 6.4 S 6.4 0.0
06:50 18.2 74.0 1026.2 3.2 S 6.4 0.0
06:55 18.3 75.0 1026.2 1.6 S 6.4 0.0
07:00 18.4 74.0 1026.2 1.6 S 8.0 0.0
07:05 18.4 73.0 1026.1 3.2 S 9.7 0.0
07:10 18.3 71.0 1026.2 3.2 S 9.7 0.0
07:15 18.3 71.0 1026.3 4.8 SSE 9.7 0.0
07:20 18.3 71.0 1026.4 3.2 SSW 9.7 0.0
07:25 18.3 72.0 1026.3 4.8 S 9.7 0.0
07:30 18.3 73.0 1026.3 3.2 S 8.0 0.0
07:30 18.4 72.0 1026.3 4.8 S 6.4 0.0
07:40 18.6 71.0 1026.2 3.2 S 8.0 0.0
07:45 18.6 71.0 1026.3 6.4 SSE 8.0 0.0
07:50 18.7 72.0 1026.2 1.6 SSW 8.0 0.0
07:55 18.9 70.0 1026.2 3.2 WSW 8.0 0.0
08:00 19.4 71.0 1026.2 6.4 SSE 8.0 0.0
08:05 19.7 69.0 1026.1 6.4 S 8.0 0.0
08:10 19.9 66.0 1026.1 4.8 S 9.7 0.0
08:15 20.1 63.0 1026.1 3.2 N 9.7 0.0
08:20 20.6 66.0 1026.1 4.8 S 9.7 0.0
08:25 21.0 64.0 1026.0 1.6 W 8.0 0.0
08:30 21.4 64.0 1026.1 3.2 WSW 8.0 0.0
08:30 21.3 63.0 1026.0 0.0 WSW 8.0 0.0
08:40 21.3 61.0 1026.1 6.4 SSE 8.0 0.0
08:45 21.8 62.0 1026.0 1.6 SW 8.0 0.0
08:50 22.1 63.0 1026.1 4.8 WSW 9.7 0.0
08:55 21.6 58.0 1026.1 1.6 SSW 9.7 0.0
09:00 21.4 65.0 1026.1 6.4 SSE 6.4 0.0
09:05 21.6 67.0 1026.0 1.6 SE 6.4 0.0
09:10 21.9 65.0 1026.2 1.6 SE 9.7 0.0
09:15 21.2 65.0 1026.2 0.0 SSE 9.7 0.0
09:20 21.4 64.0 1026.1 3.2 SW 8.0 0.0
09:25 21.6 67.0 1026.2 1.6 SW 8.0 0.0
09:30 21.4 67.0 1026.2 4.8 WSW 11.3 0.0
09:30 21.3 66.0 1026.3 3.2 WSW 11.3 0.0
09:40 21.3 66.0 1026.3 3.2 WSW 11.3 0.0
09:45 21.3 66.0 1026.3 1.6 SSW 6.4 0.0
09:50 21.4 67.0 1026.2 1.6 SSW 6.4 0.0
09:55 21.9 64.0 1026.3 1.6 SSE 4.8 0.0
10:00 22.0 66.0 1026.3 4.8 NNW 4.8 0.0
10:05 22.1 66.0 1026.2 1.6 N 4.8 0.0
10:10 22.1 61.0 1026.2 4.8 WSW 6.4 0.0
10:15 22.2 65.0 1026.2 1.6 WNW 6.4 0.0
10:20 22.4 62.0 1026.1 8.0 NW 9.7 0.0
10:25 22.8 63.0 1026.1 3.2 NNE 9.7 0.0
10:30 22.4 61.0 1026.2 1.6 WSW 8.0 0.0
10:30 22.0 63.0 1026.1 3.2 WNW 9.7 0.0
10:40 22.0 67.0 1026.1 4.8 WNW 9.7 0.0
10:45 21.7 64.0 1026.2 4.8 N 8.0 0.0
10:50 21.7 66.0 1026.1 1.6 W 4.8 0.0
10:55 22.0 66.0 1026.1 4.8 WSW 4.8 0.0
11:00 21.9 63.0 1026.0 1.6 NNW 6.4 0.0
11:05 22.1 62.0 1026.0 3.2 NW 6.4 0.0
11:10 22.4 62.0 1026.0 6.4 NNW 6.4 0.0
11:15 22.3 62.0 1026.1 3.2 NW 6.4 0.0
11:20 22.1 62.0 1026.0 3.2 NNW 6.4 0.0
11:25 22.3 65.0 1026.0 3.2 NNW 6.4 0.0
11:30 22.1 61.0 1026.0 1.6 NE 6.4 0.0
11:30 22.2 63.0 1026.0 6.4 NNW 6.4 0.0
11:40 22.3 65.0 1025.9 3.2 NNE 6.4 0.0
11:45 22.4 65.0 1026.0 3.2 NE 4.8 0.0
11:50 22.5 63.0 1025.9 1.6 ENE 4.8 0.0
11:55 22.7 65.0 1025.9 3.2 ENE 3.2 0.0
12:00 22.6 63.0 1026.0 1.6 NNW 6.4 0.0
12:05 22.8 62.0 1025.9 3.2 NNE 4.8 0.0
12:10 23.2 61.0 1025.8 1.6 ENE 6.4 0.0
12:15 23.1 63.0 1025.9 0.0 S 6.4 0.0
12:20 23.2 62.0 1025.8 1.6 SE 3.2 0.0
12:25 23.1 64.0 1025.8 1.6 SSE 4.8 0.0
12:30 22.9 63.0 1025.7 3.2 SSE 4.8 0.0
12:30 22.7 64.0 1025.6 1.6 ESE 4.8 0.0
12:40 22.8 65.0 1025.6 3.2 SSE 4.8 0.0
12:45 22.9 65.0 1025.6 1.6 S 8.0 0.0
12:50 23.2 65.0 1025.6 3.2 SSW 8.0 0.0
12:55 23.3 64.0 1025.5 3.2 SW 6.4 0.0
13:00 23.7 66.0 1025.4 1.6 W 6.4 0.0
13:05 23.7 58.0 1025.3 1.6 SSW 6.4 0.0
13:10 23.3 60.0 1025.4 3.2 SSW 6.4 0.0
13:15 23.7 62.0 1025.3 4.8 W 8.0 0.0
13:20 23.4 62.0 1025.3 4.8 SW 8.0 0.0
13:25 23.3 62.0 1025.2 6.4 SSW 12.9 0.0
13:30 23.1 63.0 1025.3 1.6 SSW 8.0 0.0
13:30 23.0 60.0 1025.3 0.0 SSW 8.0 0.0
13:40 0.0
13:45 22.9 60.0 1025.1 0.0 SW 3.2 0.0
13:50 23.5 61.0 1025.1 3.2 SW 6.4 0.0
13:55 23.6 61.0 1025.1 6.4 SE 8.0 0.0
14:00 24.3 62.0 1025.0 8.0 SSE 8.0 0.0
14:05 24.8 62.0 1024.9 4.8 SE 6.4 0.0
14:10 24.6 63.0 1025.0 3.2 SSW 6.4 0.0
14:15 24.5 58.0 1024.9 6.4 SW 8.0 0.0
14:20 24.3 60.0 1024.9 1.6 SSE 8.0 0.0
14:25 24.2 60.0 1024.8 1.6 N 9.7 0.0
14:30 23.8 61.0 1024.8 6.4 SW 9.7 0.0
14:30 23.9 62.0 1024.8 4.8 SW 8.0 0.0
14:40 0.0
14:45 26.2 56.0 1024.7 6.4 W 11.3 0.0
14:50 25.8 58.0 1024.6 1.6 SW 12.9 0.0
14:55 25.6 56.0 1024.7 3.2 SW 9.7 0.0
15:00 25.2 56.0 1024.6 1.6 WSW 11.3 0.0
15:05 24.4 59.0 1024.7 1.6 SSW 11.3 0.0
15:10 24.5 61.0 1024.6 3.2 SE 8.0 0.0
15:15 23.8 62.0 1024.6 4.8 SSW 8.0 0.0
15:20 23.5 63.0 1024.7 3.2 NE 6.4 0.0
15:25 23.4 64.0 1024.8 3.2 ENE 6.4 0.0
15:30 23.3 63.0 1024.7 0.0 ENE 6.4 0.0
15:30 23.4 61.0 1024.7 0.0 E 4.8 0.0
15:40 23.4 63.0 1024.6 1.6 SSE 4.8 0.0
15:45 23.9 63.0 1024.6 1.6 SSW 8.0 0.0
15:50 23.9 61.0 1024.7 0.0 ENE 12.9 0.0
15:55 23.8 58.0 1024.5 4.8 NNE 12.9 0.0
16:00 24.1 58.0 1024.5 1.6 SE 9.7 0.0
16:05 24.2 55.0 1024.6 3.2 SSE 9.7 0.0
16:10 24.4 56.0 1024.6 1.6 ESE 9.7 0.0
16:15 24.6 51.0 1024.5 1.6 ENE 8.0 0.0
16:20 24.7 52.0 1024.5 1.6 SSE 8.0 0.0
16:25 24.6 55.0 1024.4 6.4 SSE 6.4 0.0
16:30 24.4 52.0 1024.3 3.2 ENE 6.4 0.0
Máxima 26.2 86.0 1026.7 8.0 SSE 12.9 0.0
Mínima 16.8 51.0 1024.3
Total 0.0